SCP
-0 0 0 0 -0 -0 -0 -0 -0 0 0 0 0 0 0 0 0 0 0 0 0 0 0 0 0 0 0 0 0 0 -0 -0 -0 -0 -0 -0 0 0 0 0 0 0 0 0
-0 -0 0 0 -0 -0 -0 0 -0 -0 0 0 0 0 0 0 0 0 0 0 0 0 0 0 0 0 0 0 0 0 0 0 0 -0 -0 -0 0 0 0 0 0 0 0 0
0 0 0 -0 0 0 0 0 0 0 0 0 0 0 0 0 0 0 0 0 0 0 0 0 0 0 0 0 0 0 0 0 0 0 -0 0 0 0 0 0 0 0 0 0
0 0 0 0 0 0 0 0 -0 0 0 0 -0 0 -0 0 0 0 0 0 0 0 0 0 0 0 0 0 0 0 0 0 0 0 0 -0 0 0 0 0 0 0 0 0
0 0 0 0 0 0 0 0 0 0 0 0 0 0 0 0 0 0 0 0 0 0 0 0 0 0 0 0 0 0 0 0 0 0 0 0 0 0 0 0 0 0 0 0
0 0 0 0 0 0 0 0 0 0 0 0 -0 0 0 0 0 0 0 -0 -0 0 0 0 0 0 0 0 0 0 0 0 0 0 0 0 -0 -0 0 0 0 0 -0 -0
0 0 0 0 0 0 0 0 0 0 0 0 0 0 0 0 0 0 0 0 0 0 0 0 0 0 0 0 0 0 0 0 0 0 0 0 0 0 0 0 0 0 0 -0
0 0 0 0 0 0 0 0 0 0 0 0 -0 0 0 0 0 0 0 0 0 0 0 0 0 0 0 0 0 0 0 0 0 0 0 0 0 0 0 0 0 0 0 0
0 0 0 0 0 0 0 0 0 0 0 0 0 0 0 0 0 0 0 0 0 0 0 0 0 0 0 0 0 0 0 0 0 0 0 -0 -0 -0 0 0 0 0 0 0
0 0 0 0 0 0 0 0 0 0 0 0 0 0 0 0 0 0 0 0 0 0 0 0 0 0 0 0 0 0 0 0 0 0 0 0 0 0 0 0 0 0 0 0
0 0 0 0 0 0 0 0 0 0 0 0 0 0 0 0 0 0 0 0 0 0 0 0 0 0 0 0 0 0 0 0 0 0 0 0 0 0 0 0 0 0 0 0
0 0 0 0 -0 0 0 0 0 0 0 0 0 0 0 0 0 0 0 0 0 0 0 0 0 0 0 0 0 0 0 0 0 0 0 0 0 0 0 0 0 0 0 0
0 0 0 0 0 0 0 0 0 0 0 0 0 0 0 0 0 0 0 0 0 0 0 0 0 0 0 0 0 0 0 0 0 0 0 0 0 0 0 0 0 0 0 0
0 0 0 0 0 0 0 0 0 0 0 0 0 0 0 0 0 0 0 0 0 0 0 0 0 0 0 0 0 0 0 0 0 0 0 0 0 0 0 0 0 0 0 0
0 0 0 0 0 0 0 0 0 0 0 0 0 0 0 0 0 0 0 0 0 0 0 0 0 0 0 0 0 0 0 0 0 0 0 0 0 0 0 -0 0 0 0 -0
0 0 0 0 0 0 0 0 0 0 0 0 0 0 0 0 0 0 0 0 0 0 0 0 0 0 0 0 0 0 0 0 0 0 0 0 0 -0 0 0 -0 -0 -0 0
0 0 0 0 0 0 0 0 0 0 0 0 0 0 0 0 0 0 0 0 0 0 0 0 0 0 0 0 0 0 0 0 0 0 0 0 0 0 0 0 -0 0 -0 -0
0 0 0 0 0 0 0 0 0 0 0 0 0 0 0 0 0 0 0 0 0 0 0 0 0 0 0 0 0 0 0 0 0 0 0 0 0 0 -0 -0 -0 -0 -0 -0
0 0 0 0 0 0 0 0 0 0 0 0 0 0 0 0 0 0 0 0 0 0 0 0 0 0 0 0 0 0 0 0 0 0 0 0 0 -0 -0 -0 -0 -0 0 0
0 0 0 0 0 0 0 0 0 0 0 0 0 0 0 0 0 0 0 0 0 0 0 0 0 -0 -0 0 0 0 0 0 0 0 0 0 -0 -0 -0 0 0 0 0 0
0 0 0 0 0 0 0 0 0 0 0 0 0 0 0 0 0 0 0 0 0 0 0 0 -0 -0 0 0 0 0 0 0 0 0 -0 -0 -0 -0 -0 -0 0 0 0 -0
0 0 0 0 0 0 0 0 0 0 0 0 0 0 0 0 0 0 0 0 0 0 0 -0 -0 -0 0 0 0 0 0 0 0 -0 -0 -0 -0 -0 0 -0 -0 0 -0 -0
0 0 0 0 0 0 0 0 0 0 0 0 0 0 0 0 0 0 0 0 0 0 -0 -0 -0 0 0 0 0 0 0 0 0 0 -0 -0 -0 -0 -0 -0 -0 0 0 0
0 0 0 0 0 0 0 0 0 0 0 0 0 0 0 0 0 0 0 0 0 -0 -0 -0 -0 0 0 0 0 0 0 0 -0 -0 0 0 0 -0 -0 -0 0 0 0 0
0 0 0 0 0 0 0 0 0 0 0 0 0 0 0 0 0 0 0 0 0 0 0 -0 -0 0 0 0 0 0 0 0 -0 -0 0 0 -0 0 0 0 0 0 0 0
0 0 0 0 0 0 0 0 0 0 0 0 0 0 0 0 0 0 0 0 0 0 -0 -0 0 0 0 0 0 0 0 0 0 -0 -0 -0 0 0 0 0 0 -0 -0 -0
Wind_Speed_500mb
38 2 6 4 8 10 10 12 14 8 14 11 8 8 9 41 32 23 32 26 30 23 9 9 28 27 19 23 35 42 44 45 48 58 70 64 55 55 53 47 41 42 45 44
5 13 6 8 7 10 13 13 13 10 10 9 5 16 17 15 29 32 39 37 23 9 7 17 15 11 13 29 34 37 37 38 46 54 62 59 60 62 59 59 55 41 36 34
6 6 7 2 6 10 9 9 6 5 12 14 11 15 19 13 45 44 37 24 7 4 6 4 17 8 24 29 28 34 35 39 46 54 58 56 61 65 70 67 62 49 52 54
6 9 8 7 9 8 9 16 19 17 13 6 8 10 12 21 19 21 35 20 5 7 5 16 7 23 30 20 31 41 35 41 46 49 56 56 59 70 72 69 73 74 68 60
14 6 10 9 4 12 8 14 11 10 10 7 20 3 3 16 11 5 23 17 9 10 11 17 22 26 11 33 40 29 35 34 42 44 46 55 70 72 79 80 84 88 91 87
15 5 2 3 9 1 9 10 14 11 6 2 23 9 4 7 12 5 9 27 20 13 18 26 27 19 33 42 37 31 26 36 36 42 54 67 73 74 77 84 90 94 94 88
18 14 10 8 5 14 12 4 7 10 6 11 8 9 6 13 17 14 18 7 20 24 21 24 26 30 41 35 30 24 30 31 39 49 60 66 67 75 81 83 86 92 97 96
9 10 19 15 8 4 8 11 9 7 2 10 15 7 4 14 27 27 30 27 24 23 20 19 24 37 33 24 30 26 27 38 49 59 70 79 95 96 97 104 95 86 82 81
7 6 13 10 7 4 8 8 17 9 8 5 4 8 8 17 14 16 12 14 21 23 16 19 36 36 29 33 29 32 43 53 63 75 85 92 105 107 105 83 84 83 84 83
2 5 9 11 4 11 5 2 2 5 5 5 8 5 5 11 9 8 13 17 31 31 21 33 28 31 40 38 33 46 57 67 76 84 90 100 112 112 86 80 82 79 79 78
6 8 14 10 12 13 3 5 5 9 11 10 5 10 11 17 13 5 11 25 33 20 33 25 31 40 39 38 48 57 69 75 85 96 104 111 119 94 84 76 77 75 74 71
7 6 5 13 19 9 9 1 9 9 8 6 10 10 17 16 21 4 7 6 18 28 20 28 37 35 35 39 51 65 78 95 101 101 108 116 97 83 78 78 70 67 70 70
3 1 3 11 12 9 5 3 8 6 7 10 9 11 14 19 8 2 13 11 25 26 34 38 35 37 39 52 66 80 95 92 95 102 111 92 77 75 76 74 71 68 65 63
13 5 6 10 6 9 10 9 15 10 7 9 12 16 9 3 10 14 20 29 27 34 41 38 40 39 53 68 81 89 92 92 105 105 83 73 77 73 69 69 71 66 61 61
10 5 2 16 17 21 24 24 20 10 12 11 17 15 3 4 5 7 26 27 31 34 30 36 39 51 64 73 79 84 91 107 100 80 66 70 70 67 67 65 58 54 52 47
7 5 4 9 21 24 27 24 23 16 14 19 17 7 11 13 8 28 25 23 26 28 34 34 40 50 60 66 75 86 103 95 76 66 68 68 63 61 60 57 52 48 40 37
14 9 6 8 12 24 17 12 18 18 14 9 11 11 22 10 23 21 17 23 29 31 25 28 39 46 55 64 77 96 91 73 65 64 64 62 59 59 54 49 42 36 29 23
6 4 3 5 7 9 14 13 23 5 24 24 18 23 22 22 29 38 28 23 28 24 20 30 38 51 63 71 88 88 71 63 62 63 62 56 55 51 47 38 30 27 23 18
14 9 2 5 7 18 28 15 9 7 10 16 19 19 35 37 28 24 47 33 30 25 32 36 48 61 67 82 86 70 61 60 62 56 56 52 48 44 36 33 29 34 28 27
17 10 10 6 5 6 3 4 16 9 5 27 36 26 31 27 8 9 32 32 21 25 33 44 59 67 76 82 69 58 58 62 55 51 51 43 39 32 30 33 35 35 42 43
3 3 13 8 8 10 14 25 13 9 7 9 17 23 22 5 7 29 28 26 25 31 40 55 69 70 74 69 59 53 55 53 46 42 40 35 30 29 28 32 39 43 48 51
11 10 6 2 4 14 12 10 9 4 30 33 22 24 25 26 29 23 32 22 29 38 50 65 68 69 68 58 53 51 50 45 40 38 34 28 25 24 27 34 41 52 60 67
9 13 12 14 12 21 14 9 34 22 19 20 11 19 22 28 32 26 31 25 34 41 53 63 64 64 59 52 50 49 42 40 38 35 33 30 26 27 27 34 45 56 66 74
8 11 7 6 9 23 30 19 19 18 16 16 14 17 21 36 25 31 29 29 34 42 54 59 60 59 53 49 51 45 37 36 36 35 37 38 38 37 39 42 50 60 70 77
2 10 5 3 7 25 31 25 26 23 20 16 14 18 25 20 31 30 28 29 32 40 50 53 54 48 45 47 52 50 41 41 42 43 47 51 58 64 64 64 65 66 71 75
5 5 5 6 20 13 24 28 17 11 9 12 12 15 17 22 25 27 25 23 29 37 45 49 45 39 41 47 47 42 42 41 42 50 58 62 65 70 77 78 73 72 73 75
Wind_Direction_500mb
240 279 275 29 9 3 316 305 316 94 153 126 143 246 268 187 193 160 163 151 123 109 96 339 322 313 305 321 335 335 338 335 335 341 341 338 334 327 318 308 297 283 284 281
296 250 74 6 34 355 318 301 298 304 33 91 146 249 246 233 182 169 123 102 90 57 322 311 321 309 324 333 336 339 328 327 335 340 340 334 330 326 324 318 300 287 282 284
210 98 130 39 215 240 284 298 293 51 357 349 323 304 268 257 124 109 111 106 107 272 240 339 339 346 341 337 335 328 320 322 330 334 334 331 329 325 326 326 324 310 284 280
319 117 1 293 314 93 334 21 10 7 18 283 45 278 311 94 54 76 109 138 216 156 11 323 344 335 328 328 336 324 315 323 330 332 332 335 327 324 322 319 316 314 311 303
261 122 156 305 89 56 259 27 345 300 287 332 295 2 240 99 63 127 152 189 269 287 343 41 7 350 10 344 339 318 320 329 332 333 333 329 326 325 322 313 308 307 306 304
259 95 342 271 19 337 299 305 295 267 194 309 250 209 270 140 163 184 195 211 227 19 14 -0 352 347 339 339 336 317 324 329 328 329 328 326 324 322 315 310 306 305 307 304
265 203 171 87 303 272 202 21 329 347 42 220 331 328 219 137 146 166 197 178 27 4 354 351 343 342 340 331 333 332 323 322 327 326 323 323 317 313 310 305 302 301 300 298
260 292 162 153 215 47 292 136 144 200 35 288 332 30 5 64 65 71 49 25 359 332 332 352 5 348 335 341 339 336 330 328 325 325 323 325 323 316 311 305 303 300 299 298
1 35 55 89 59 96 330 56 164 108 20 29 233 99 51 66 36 29 358 331 314 317 331 2 347 344 11 0 352 339 331 326 323 320 319 321 319 315 314 309 302 299 298 294
303 346 223 138 173 272 215 284 49 25 129 227 314 76 201 142 154 246 318 341 332 313 357 353 20 13 2 357 345 333 329 323 320 317 319 319 317 317 313 308 304 300 295 297
153 154 287 135 192 205 177 256 202 133 136 171 193 268 184 193 171 162 276 311 316 348 356 21 12 358 358 344 335 328 324 324 322 321 320 319 319 318 311 308 304 300 301 301
148 134 265 272 298 166 129 269 127 123 266 191 157 261 278 155 178 80 83 297 292 353 21 3 357 3 354 340 332 327 325 324 322 321 318 318 318 316 311 312 309 304 299 296
122 0 346 298 326 30 60 307 237 184 123 204 147 261 228 106 98 226 261 296 2 10 8 3 10 3 348 338 332 330 327 325 321 319 320 321 321 317 316 314 312 308 304 300
81 107 159 204 295 300 293 268 256 201 143 224 220 259 69 28 60 12 9 2 20 7 1 9 8 354 341 335 329 329 329 325 323 326 328 327 325 324 320 316 313 309 305 300
108 157 318 294 306 308 299 296 282 260 235 179 242 249 163 155 129 358 51 28 19 359 7 11 1 345 336 328 330 332 329 328 331 334 331 330 326 324 323 320 319 315 310 305
125 203 209 291 301 292 289 281 281 277 268 265 267 138 116 51 41 60 51 25 0 34 14 5 349 339 332 332 336 333 332 334 338 340 338 331 334 333 334 331 328 323 319 317
141 154 170 242 303 322 306 276 297 286 243 76 355 117 124 102 75 74 33 19 49 23 14 0 350 342 337 339 337 336 336 340 344 344 344 348 350 346 343 342 342 345 344 337
120 101 143 248 306 254 249 266 282 52 51 36 56 74 82 69 88 63 29 40 27 33 27 12 356 346 340 340 339 339 341 350 352 349 353 358 355 350 352 359 9 21 24 36
185 158 209 187 232 281 306 327 17 90 68 18 49 49 41 24 19 7 6 34 50 49 26 7 350 344 344 345 344 342 353 356 355 357 1 4 357 359 12 29 37 57 57 67
217 168 162 207 254 270 269 12 56 67 68 8 17 35 30 32 28 287 4 28 42 25 15 360 351 348 347 349 347 356 2 360 3 7 4 3 1 14 33 47 57 64 73 73
97 166 191 192 205 265 356 6 347 71 322 191 93 46 30 31 342 337 28 51 29 23 9 2 355 353 353 352 357 8 6 9 10 12 7 15 17 38 53 67 74 79 82 84
184 166 193 108 264 248 353 45 98 220 33 22 36 32 12 357 349 34 20 49 26 17 5 0 358 357 357 0 8 13 9 13 11 8 15 21 31 54 71 80 86 88 89 89
213 192 169 166 198 171 209 190 154 182 184 161 45 17 359 350 347 31 33 53 28 13 5 1 0 1 6 15 20 14 19 19 21 28 33 41 46 66 74 85 89 91 92 92
20 88 104 100 134 180 194 205 194 215 152 95 40 1 8 19 45 37 44 28 18 9 4 3 3 9 18 25 28 30 30 29 35 47 60 67 70 75 84 90 93 96 96 96
186 60 76 27 112 120 172 118 111 96 76 54 17 29 22 49 39 41 32 24 18 12 5 6 10 20 31 42 45 40 46 58 61 70 77 83 87 89 87 86 88 87 89 91
85 195 122 151 111 99 98 113 109 79 17 2 54 21 66 50 40 27 21 23 12 10 11 12 20 36 52 59 55 50 59 58 68 81 86 87 88 88 87 86 86 86 88 89
Wind_Speed_850mb
38 2 6 4 8 10 10 12 14 8 14 11 8 8 9 41 32 23 32 26 30 23 9 9 28 27 19 23 35 42 44 45 48 58 70 64 55 55 53 47 41 42 45 44
5 13 6 8 7 10 13 13 13 10 10 9 5 16 17 15 29 32 39 37 23 9 7 17 15 11 13 29 34 37 37 38 46 54 62 59 60 62 59 59 55 41 36 34
6 6 7 2 6 10 9 9 6 5 12 14 11 15 19 13 45 44 37 24 7 4 6 4 17 8 24 29 28 34 35 39 46 54 58 56 61 65 70 67 62 49 52 54
6 9 8 7 9 8 9 16 19 17 13 6 8 10 12 21 19 21 35 20 5 7 5 16 7 23 30 20 31 41 35 41 46 49 56 56 59 70 72 69 73 74 68 60
14 6 10 9 4 12 8 14 11 10 10 7 20 3 3 16 11 5 23 17 9 10 11 17 22 26 11 33 40 29 35 34 42 44 46 55 70 72 79 80 84 88 91 87
15 5 2 3 9 1 9 10 14 11 6 2 23 9 4 7 12 5 9 27 20 13 18 26 27 19 33 42 37 31 26 36 36 42 54 67 73 74 77 84 90 94 94 88
18 14 10 8 5 14 12 4 7 10 6 11 8 9 6 13 17 14 18 7 20 24 21 24 26 30 41 35 30 24 30 31 39 49 60 66 67 75 81 83 86 92 97 96
9 10 19 15 8 4 8 11 9 7 2 10 15 7 4 14 27 27 30 27 24 23 20 19 24 37 33 24 30 26 27 38 49 59 70 79 95 96 97 104 95 86 82 81
7 6 13 10 7 4 8 8 17 9 8 5 4 8 8 17 14 16 12 14 21 23 16 19 36 36 29 33 29 32 43 53 63 75 85 92 105 107 105 83 84 83 84 83
2 5 9 11 4 11 5 2 2 5 5 5 8 5 5 11 9 8 13 17 31 31 21 33 28 31 40 38 33 46 57 67 76 84 90 100 112 112 86 80 82 79 79 78
6 8 14 10 12 13 3 5 5 9 11 10 5 10 11 17 13 5 11 25 33 20 33 25 31 40 39 38 48 57 69 75 85 96 104 111 119 94 84 76 77 75 74 71
7 6 5 13 19 9 9 1 9 9 8 6 10 10 17 16 21 4 7 6 18 28 20 28 37 35 35 39 51 65 78 95 101 101 108 116 97 83 78 78 70 67 70 70
3 1 3 11 12 9 5 3 8 6 7 10 9 11 14 19 8 2 13 11 25 26 34 38 35 37 39 52 66 80 95 92 95 102 111 92 77 75 76 74 71 68 65 63
13 5 6 10 6 9 10 9 15 10 7 9 12 16 9 3 10 14 20 29 27 34 41 38 40 39 53 68 81 89 92 92 105 105 83 73 77 73 69 69 71 66 61 61
10 5 2 16 17 21 24 24 20 10 12 11 17 15 3 4 5 7 26 27 31 34 30 36 39 51 64 73 79 84 91 107 100 80 66 70 70 67 67 65 58 54 52 47
7 5 4 9 21 24 27 24 23 16 14 19 17 7 11 13 8 28 25 23 26 28 34 34 40 50 60 66 75 86 103 95 76 66 68 68 63 61 60 57 52 48 40 37
14 9 6 8 12 24 17 12 18 18 14 9 11 11 22 10 23 21 17 23 29 31 25 28 39 46 55 64 77 96 91 73 65 64 64 62 59 59 54 49 42 36 29 23
6 4 3 5 7 9 14 13 23 5 24 24 18 23 22 22 29 38 28 23 28 24 20 30 38 51 63 71 88 88 71 63 62 63 62 56 55 51 47 38 30 27 23 18
14 9 2 5 7 18 28 15 9 7 10 16 19 19 35 37 28 24 47 33 30 25 32 36 48 61 67 82 86 70 61 60 62 56 56 52 48 44 36 33 29 34 28 27
17 10 10 6 5 6 3 4 16 9 5 27 36 26 31 27 8 9 32 32 21 25 33 44 59 67 76 82 69 58 58 62 55 51 51 43 39 32 30 33 35 35 42 43
3 3 13 8 8 10 14 25 13 9 7 9 17 23 22 5 7 29 28 26 25 31 40 55 69 70 74 69 59 53 55 53 46 42 40 35 30 29 28 32 39 43 48 51
11 10 6 2 4 14 12 10 9 4 30 33 22 24 25 26 29 23 32 22 29 38 50 65 68 69 68 58 53 51 50 45 40 38 34 28 25 24 27 34 41 52 60 67
9 13 12 14 12 21 14 9 34 22 19 20 11 19 22 28 32 26 31 25 34 41 53 63 64 64 59 52 50 49 42 40 38 35 33 30 26 27 27 34 45 56 66 74
8 11 7 6 9 23 30 19 19 18 16 16 14 17 21 36 25 31 29 29 34 42 54 59 60 59 53 49 51 45 37 36 36 35 37 38 38 37 39 42 50 60 70 77
2 10 5 3 7 25 31 25 26 23 20 16 14 18 25 20 31 30 28 29 32 40 50 53 54 48 45 47 52 50 41 41 42 43 47 51 58 64 64 64 65 66 71 75
5 5 5 6 20 13 24 28 17 11 9 12 12 15 17 22 25 27 25 23 29 37 45 49 45 39 41 47 47 42 42 41 42 50 58 62 65 70 77 78 73 72 73 75
Wind_Direction_850mb
240 279 275 29 9 3 316 305 316 94 153 126 143 246 268 187 193 160 163 151 123 109 96 339 322 313 305 321 335 335 338 335 335 341 341 338 334 327 318 308 297 283 284 281
296 250 74 6 34 355 318 301 298 304 33 91 146 249 246 233 182 169 123 102 90 57 322 311 321 309 324 333 336 339 328 327 335 340 340 334 330 326 324 318 300 287 282 284
210 98 130 39 215 240 284 298 293 51 357 349 323 304 268 257 124 109 111 106 107 272 240 339 339 346 341 337 335 328 320 322 330 334 334 331 329 325 326 326 324 310 284 280
319 117 1 293 314 93 334 21 10 7 18 283 45 278 311 94 54 76 109 138 216 156 11 323 344 335 328 328 336 324 315 323 330 332 332 335 327 324 322 319 316 314 311 303
261 122 156 305 89 56 259 27 345 300 287 332 295 2 240 99 63 127 152 189 269 287 343 41 7 350 10 344 339 318 320 329 332 333 333 329 326 325 322 313 308 307 306 304
259 95 342 271 19 337 299 305 295 267 194 309 250 209 270 140 163 184 195 211 227 19 14 -0 352 347 339 339 336 317 324 329 328 329 328 326 324 322 315 310 306 305 307 304
265 203 171 87 303 272 202 21 329 347 42 220 331 328 219 137 146 166 197 178 27 4 354 351 343 342 340 331 333 332 323 322 327 326 323 323 317 313 310 305 302 301 300 298
260 292 162 153 215 47 292 136 144 200 35 288 332 30 5 64 65 71 49 25 359 332 332 352 5 348 335 341 339 336 330 328 325 325 323 325 323 316 311 305 303 300 299 298
1 35 55 89 59 96 330 56 164 108 20 29 233 99 51 66 36 29 358 331 314 317 331 2 347 344 11 0 352 339 331 326 323 320 319 321 319 315 314 309 302 299 298 294
303 346 223 138 173 272 215 284 49 25 129 227 314 76 201 142 154 246 318 341 332 313 357 353 20 13 2 357 345 333 329 323 320 317 319 319 317 317 313 308 304 300 295 297
153 154 287 135 192 205 177 256 202 133 136 171 193 268 184 193 171 162 276 311 316 348 356 21 12 358 358 344 335 328 324 324 322 321 320 319 319 318 311 308 304 300 301 301
148 134 265 272 298 166 129 269 127 123 266 191 157 261 278 155 178 80 83 297 292 353 21 3 357 3 354 340 332 327 325 324 322 321 318 318 318 316 311 312 309 304 299 296
122 0 346 298 326 30 60 307 237 184 123 204 147 261 228 106 98 226 261 296 2 10 8 3 10 3 348 338 332 330 327 325 321 319 320 321 321 317 316 314 312 308 304 300
81 107 159 204 295 300 293 268 256 201 143 224 220 259 69 28 60 12 9 2 20 7 1 9 8 354 341 335 329 329 329 325 323 326 328 327 325 324 320 316 313 309 305 300
108 157 318 294 306 308 299 296 282 260 235 179 242 249 163 155 129 358 51 28 19 359 7 11 1 345 336 328 330 332 329 328 331 334 331 330 326 324 323 320 319 315 310 305
125 203 209 291 301 292 289 281 281 277 268 265 267 138 116 51 41 60 51 25 0 34 14 5 349 339 332 332 336 333 332 334 338 340 338 331 334 333 334 331 328 323 319 317
141 154 170 242 303 322 306 276 297 286 243 76 355 117 124 102 75 74 33 19 49 23 14 0 350 342 337 339 337 336 336 340 344 344 344 348 350 346 343 342 342 345 344 337
120 101 143 248 306 254 249 266 282 52 51 36 56 74 82 69 88 63 29 40 27 33 27 12 356 346 340 340 339 339 341 350 352 349 353 358 355 350 352 359 9 21 24 36
185 158 209 187 232 281 306 327 17 90 68 18 49 49 41 24 19 7 6 34 50 49 26 7 350 344 344 345 344 342 353 356 355 357 1 4 357 359 12 29 37 57 57 67
217 168 162 207 254 270 269 12 56 67 68 8 17 35 30 32 28 287 4 28 42 25 15 360 351 348 347 349 347 356 2 360 3 7 4 3 1 14 33 47 57 64 73 73
97 166 191 192 205 265 356 6 347 71 322 191 93 46 30 31 342 337 28 51 29 23 9 2 355 353 353 352 357 8 6 9 10 12 7 15 17 38 53 67 74 79 82 84
184 166 193 108 264 248 353 45 98 220 33 22 36 32 12 357 349 34 20 49 26 17 5 0 358 357 357 0 8 13 9 13 11 8 15 21 31 54 71 80 86 88 89 89
213 192 169 166 198 171 209 190 154 182 184 161 45 17 359 350 347 31 33 53 28 13 5 1 0 1 6 15 20 14 19 19 21 28 33 41 46 66 74 85 89 91 92 92
20 88 104 100 134 180 194 205 194 215 152 95 40 1 8 19 45 37 44 28 18 9 4 3 3 9 18 25 28 30 30 29 35 47 60 67 70 75 84 90 93 96 96 96
186 60 76 27 112 120 172 118 111 96 76 54 17 29 22 49 39 41 32 24 18 12 5 6 10 20 31 42 45 40 46 58 61 70 77 83 87 89 87 86 88 87 89 91
85 195 122 151 111 99 98 113 109 79 17 2 54 21 66 50 40 27 21 23 12 10 11 12 20 36 52 59 55 50 59 58 68 81 86 87 88 88 87 86 86 86 88 89